Regional Weather Roundup
Issued by NWS

Home | Current Version | Previous Version | Graphics & Text | Print | Product List | Glossary On
Versions: 1 2 3 4 5 6 7 8 9 10 11 12 13 14 15 16 17 18 19 20 21 22 23 24 25 26 27 28 29 30 31 32 33 34 35 36 37 38 39 40 41 42 43 44 45 46 47 48 49 50
000
ASUS43 KBIS 230220
RWRND

NORTH DAKOTA REGIONAL WEATHER ROUNDUP
NATIONAL WEATHER SERVICE BISMARCK ND
800 PM CST SAT NOV 22 2014

NOTE: "FAIR" INDICATES FEW OR NO CLOUDS BELOW 12,000 FEET WITH NO
SIGNIFICANT WEATHER AND/OR OBSTRUCTIONS TO VISIBILITY.


NDZ001>003-009>011-017-230300-
NORTHWEST NORTH DAKOTA

CITY           SKY/WX    TMP DP  RH WIND       PRES   REMARKS
WILLISTON      PTCLDY    34  30  85 SW8       29.30R
MINOT          CLOUDY    42  31  64 SW14      29.25R
MINOT AFB      CLOUDY    40  33  75 W12       29.24S
$$

NDZ018>021-031>035-040>046-230300-
SOUTHWEST NORTH DAKOTA

CITY           SKY/WX    TMP DP  RH WIND       PRES   REMARKS
BISMARCK       PTCLDY    34  32  92 SW5       29.34F
DICKINSON      PTCLDY    38  33  82 SW12      29.31S
GARRISON         N/A     35  30  82 W8        29.29R
HETTINGER ARPT MOCLDY    37  33  85 S6        29.38S
$$

NDZ004>008-012>016-024-026-027-054-230300-
NORTHEAST NORTH DAKOTA

CITY           SKY/WX    TMP DP  RH WIND       PRES   REMARKS
GRAND FORKS    CLOUDY    37  30  75 S12       29.37F
GRND FRKS AFB  CLOUDY    35  31  86 S15       29.36F
DEVILS LAKE    CLOUDY    36  25  64 SE10      29.29F
$$

NDZ022-023-025-028>030-036>039-047>053-230300-
SOUTHEAST NORTH DAKOTA

CITY           SKY/WX    TMP DP  RH WIND       PRES   REMARKS
FARGO          CLOUDY    35  31  85 S20G31    29.41F
JAMESTOWN      CLOUDY    34  28  79 S7        29.33F
$$



USA.gov is the U.S. government's official web portal to all federal, state and local government web resources and services.